This is the latest recevied weather packets stored in our database for station/object JH5EWP-13. If no packets are shown the sender has not sent any weather packets the latest 10 day(s).
| Time | Temp. | Humidity | Pressure | Rain* | Wind** | Luminosity | Snow |
|---|---|---|---|---|---|---|---|
| 1777508956 | 13.89° C | 87% | 1007.1 hPa | 2.54 mm | - | - | - |
| 1777508056 | 13.33° C | 87% | 1007.2 hPa | 2.29 mm | - | - | - |
| 1777507156 | 13.33° C | 86% | 1007.4 hPa | 1.78 mm | - | - | - |
| 1777506256 | 13.33° C | 86% | 1007.4 hPa | 1.27 mm | - | - | - |
| 1777505356 | 13.33° C | 86% | 1007.7 hPa | 1.27 mm | - | - | - |
| 1777504455 | 13.33° C | 86% | 1007.6 hPa | 1.27 mm | - | - | - |
| 1777503555 | 13.33° C | 86% | 1007.6 hPa | 1.27 mm | - | - | - |
| 1777502657 | 12.78° C | 85% | 1007.8 hPa | 1.02 mm | - | - | - |
| 1777501756 | 12.78° C | 85% | 1007.8 hPa | 1.02 mm | - | - | - |
| 1777500856 | 12.78° C | 85% | 1007.8 hPa | 1.27 mm | - | - | - |
| 1777499955 | 12.78° C | 85% | 1007.7 hPa | 2.03 mm | - | - | - |
| 1777499055 | 12.78° C | 84% | 1007.4 hPa | 2.03 mm | - | - | - |
| 1777498157 | 12.78° C | 84% | 1007.4 hPa | 2.29 mm | - | - | - |
| 1777497257 | 12.78° C | 84% | 1007.4 hPa | 2.03 mm | - | - | - |
| 1777496356 | 12.78° C | 83% | 1007.4 hPa | 1.78 mm | - | - | - |
| 1777495456 | 12.78° C | 83% | 1007.3 hPa | 2.03 mm | - | - | - |
| 1777494556 | 12.22° C | 86% | 1007.2 hPa | 2.29 mm | - | - | - |
| 1777493656 | 12.22° C | 85% | 1007.3 hPa | 2.54 mm | - | - | - |
| 1777492756 | 12.22° C | 85% | 1007.5 hPa | 2.29 mm | - | - | - |
| 1777491856 | 12.22° C | 81% | 1007.5 hPa | 2.03 mm | - | - | - |
| 1777490956 | 12.78° C | 81% | 1007.3 hPa | 1.78 mm | - | - | - |
| 1777490055 | 12.78° C | 82% | 1007.6 hPa | 1.78 mm | - | - | - |
| 1777489156 | 12.78° C | 82% | 1007.7 hPa | 1.78 mm | - | - | - |
| 1777488256 | 13.33° C | 81% | 1007.8 hPa | 1.78 mm | - | - | - |
| 1777487356 | 13.33° C | 81% | 1007.6 hPa | 1.27 mm | - | - | - |
* Rain latest hour (hover to see other rain measurements)
** Current wind speed in m/s (hover to see current wind gust speed)